Location: Burbank
(38.7788°N, 114.0429°W)
Time: 20:46:34
(UTC+00:00)

Vanguard 2 Rocket - Pass Details

Date: 24 May 2026
Orbit: 553 x 3286 km, 32.9° (Epoch: 6 June)

Event Time Altitude Azimuth Distance (km) Brightness Sun altitude
Rises 00:17:59 0° 274° (W) 6,805 12.7 27.1°
Reaches altitude 10° 00:25:19 10° 256° (WSW) 6,090 12.5 25.7°
Maximum altitude 00:34:51 16° 226° (SW) 5,719 11.6 23.9°
Drops below altitude 10° 00:44:28 10° 196° (SSW) 6,059 11.2 22.0°
Sets 00:51:56 0° 177° (S) 6,740 11.2 20.6°
